Time,TemperatureF,DewpointF,PressureIn,WindDirection,WindDirectionDegrees,WindSpeedMPH,WindSpeedGustMPH,Humidity,HourlyPrecipIn,Conditions,Clouds,dailyrainin,SoftwareType,DateUTC
2013-06-04 00:00:00,64.8,53.6,29.76,ESE,114,6.0,15.0,67,0.00,,,0.00,Wunderground v.1.15,2013-06-04 05:00:00,
2013-06-04 00:10:00,64.5,53.3,29.76,ESE,117,6.0,15.0,67,0.00,,,0.00,Wunderground v.1.15,2013-06-04 05:10:00,
2013-06-04 00:20:00,64.5,53.7,29.76,SE,127,7.0,7.0,68,0.00,,,0.00,Wunderground v.1.15,2013-06-04 05:20:00,
2013-06-04 00:30:00,64.5,53.7,29.76,SE,124,7.0,13.0,68,0.00,,,0.00,Wunderground v.1.15,2013-06-04 05:30:00,
2013-06-04 00:40:00,64.3,53.5,29.76,SE,127,6.0,6.0,68,0.00,,,0.00,Wunderground v.1.15,2013-06-04 05:40:00,
2013-06-04 00:45:00,64.2,53.8,29.76,ESE,110,6.0,13.0,69,0.00,,,0.00,Wunderground v.1.15,2013-06-04 05:45:00,
2013-06-04 00:55:00,64.2,53.8,29.76,SE,133,7.0,14.0,69,0.00,,,0.00,Wunderground v.1.15,2013-06-04 05:55:00,
2013-06-04 01:00:00,64.2,53.8,29.75,ESE,117,7.0,7.0,69,0.00,,,0.00,Wunderground v.1.15,2013-06-04 06:00:00,
2013-06-04 01:10:00,64.2,53.8,29.75,ESE,112,6.0,14.0,69,0.00,,,0.00,Wunderground v.1.15,2013-06-04 06:10:00,
2013-06-04 01:20:00,64.2,53.8,29.75,ESE,106,6.0,6.0,69,0.00,,,0.00,Wunderground v.1.15,2013-06-04 06:20:00,
2013-06-04 01:30:00,64.0,53.6,29.75,ESE,104,6.0,14.0,69,0.00,,,0.00,Wunderground v.1.15,2013-06-04 06:30:00,
2013-06-04 01:35:00,64.0,53.6,29.75,ESE,107,7.0,14.0,69,0.00,,,0.00,Wunderground v.1.15,2013-06-04 06:35:00,
2013-06-04 01:45:00,64.0,53.6,29.74,SE,127,7.0,15.0,69,0.00,,,0.00,Wunderground v.1.15,2013-06-04 06:45:00,
2013-06-04 01:55:00,63.9,53.5,29.74,ESE,109,7.0,16.0,69,0.00,,,0.00,Wunderground v.1.15,2013-06-04 06:55:00,
2013-06-04 02:00:00,63.7,53.3,29.72,SE,133,6.0,6.0,69,0.00,,,0.00,Wunderground v.1.15,2013-06-04 07:00:00,
2013-06-04 02:10:00,63.7,53.7,29.72,East,89,7.0,7.0,70,0.00,,,0.00,Wunderground v.1.15,2013-06-04 07:10:00,
2013-06-04 02:20:00,63.5,53.5,29.72,SE,127,6.0,15.0,70,0.00,,,0.00,Wunderground v.1.15,2013-06-04 07:20:00,
2013-06-04 02:25:00,63.5,53.5,29.72,ESE,102,7.0,15.0,70,0.00,,,0.00,Wunderground v.1.15,2013-06-04 07:25:00,
2013-06-04 02:35:00,63.5,53.5,29.71,ESE,119,7.0,8.0,70,0.00,,,0.00,Wunderground v.1.15,2013-06-04 07:35:00,
2013-06-04 02:45:00,63.7,53.7,29.71,East,95,7.0,15.0,70,0.00,,,0.00,Wunderground v.1.15,2013-06-04 07:45:00,
2013-06-04 02:50:00,63.5,53.5,29.71,ESE,103,7.0,14.0,70,0.00,,,0.00,Wunderground v.1.15,2013-06-04 07:50:00,
2013-06-04 03:00:00,63.4,53.4,29.72,ESE,120,6.0,14.0,70,0.00,,,0.00,Wunderground v.1.15,2013-06-04 08:00:00,
2013-06-04 03:10:00,63.2,53.6,29.72,SE,137,6.0,14.0,71,0.00,,,0.00,Wunderground v.1.15,2013-06-04 08:10:00,
2013-06-04 03:15:00,63.2,53.6,29.73,SE,128,6.0,14.0,71,0.00,,,0.00,Wunderground v.1.15,2013-06-04 08:15:00,
2013-06-04 03:25:00,63.1,53.5,29.73,SE,124,6.0,14.0,71,0.00,,,0.00,Wunderground v.1.15,2013-06-04 08:25:00,
2013-06-04 03:35:00,63.1,53.9,29.73,SE,138,6.0,14.0,72,0.00,,,0.00,Wunderground v.1.15,2013-06-04 08:35:00,
2013-06-04 03:45:00,62.9,53.7,29.72,ESE,114,6.0,14.0,72,0.00,,,0.00,Wunderground v.1.15,2013-06-04 08:45:00,
2013-06-04 03:50:00,63.1,53.9,29.72,SE,134,5.0,14.0,72,0.00,,,0.00,Wunderground v.1.15,2013-06-04 08:50:00,
2013-06-04 04:00:00,63.1,53.9,29.72,ESE,117,6.0,14.0,72,0.00,,,0.00,Wunderground v.1.15,2013-06-04 09:00:00,
2013-06-04 04:10:00,63.2,54.0,29.72,ESE,106,6.0,6.0,72,0.00,,,0.00,Wunderground v.1.15,2013-06-04 09:10:00,
2013-06-04 04:15:00,63.4,54.2,29.72,ESE,103,6.0,9.0,72,0.00,,,0.00,Wunderground v.1.15,2013-06-04 09:15:00,
2013-06-04 04:25:00,63.4,54.2,29.72,ESE,110,6.0,15.0,72,0.00,,,0.00,Wunderground v.1.15,2013-06-04 09:25:00,
2013-06-04 04:35:00,63.2,54.0,29.73,ESE,110,6.0,15.0,72,0.00,,,0.00,Wunderground v.1.15,2013-06-04 09:35:00,
2013-06-04 04:40:00,63.1,53.9,29.73,East,100,5.0,15.0,72,0.00,,,0.00,Wunderground v.1.15,2013-06-04 09:40:00,
2013-06-04 04:50:00,63.1,54.3,29.74,ESE,121,6.0,6.0,73,0.00,,,0.00,Wunderground v.1.15,2013-06-04 09:50:00,
2013-06-04 04:55:00,63.1,54.3,29.74,ESE,104,5.0,17.0,73,0.00,,,0.00,Wunderground v.1.15,2013-06-04 09:55:00,
2013-06-04 05:05:00,63.1,54.3,29.74,SE,133,5.0,17.0,73,0.00,,,0.00,Wunderground v.1.15,2013-06-04 10:05:00,
2013-06-04 05:15:00,63.1,54.3,29.75,East,96,5.0,17.0,73,0.00,,,0.00,Wunderground v.1.15,2013-06-04 10:15:00,
2013-06-04 05:25:00,62.9,54.5,29.75,ESE,113,5.0,14.0,74,0.00,,,0.00,Wunderground v.1.15,2013-06-04 10:25:00,
2013-06-04 05:35:00,62.9,54.5,29.74,ESE,120,5.0,14.0,74,0.00,,,0.00,Wunderground v.1.15,2013-06-04 10:35:00,
2013-06-04 05:40:00,62.9,54.5,29.74,SE,130,6.0,14.0,74,0.00,,,0.00,Wunderground v.1.15,2013-06-04 10:40:00,
2013-06-04 05:50:00,62.9,54.5,29.73,ESE,104,7.0,7.0,74,0.00,,,0.00,Wunderground v.1.15,2013-06-04 10:50:00,
2013-06-04 06:00:00,62.9,54.5,29.74,ESE,103,7.0,11.0,74,0.00,,,0.00,Wunderground v.1.15,2013-06-04 11:00:00,
2013-06-04 06:10:00,62.9,54.9,29.74,SE,133,7.0,7.0,75,0.00,,,0.00,Wunderground v.1.15,2013-06-04 11:10:00,
2013-06-04 06:15:00,62.9,54.9,29.75,SE,141,6.0,11.0,75,0.00,,,0.00,Wunderground v.1.15,2013-06-04 11:15:00,
2013-06-04 06:25:00,62.9,54.9,29.75,ESE,116,6.0,6.0,75,0.00,,,0.00,Wunderground v.1.15,2013-06-04 11:25:00,
2013-06-04 06:35:00,62.9,54.9,29.74,SE,145,6.0,14.0,75,0.00,,,0.00,Wunderground v.1.15,2013-06-04 11:35:00,
2013-06-04 06:45:00,62.9,54.9,29.74,ESE,120,5.0,14.0,75,0.00,,,0.00,Wunderground v.1.15,2013-06-04 11:45:00,
2013-06-04 06:50:00,62.9,54.9,29.74,ESE,110,6.0,6.0,75,0.00,,,0.00,Wunderground v.1.15,2013-06-04 11:50:00,
2013-06-04 07:00:00,63.1,55.0,29.74,SE,140,7.0,15.0,75,0.00,,,0.00,Wunderground v.1.15,2013-06-04 12:00:00,
2013-06-04 07:10:00,63.1,55.4,29.74,SE,133,7.0,7.0,76,0.00,,,0.00,Wunderground v.1.15,2013-06-04 12:10:00,
2013-06-04 07:20:00,63.1,55.4,29.74,SE,143,8.0,8.0,76,0.00,,,0.00,Wunderground v.1.15,2013-06-04 12:20:00,
2013-06-04 07:30:00,63.2,55.5,29.74,ESE,110,8.0,8.0,76,0.00,,,0.00,Wunderground v.1.15,2013-06-04 12:30:00,
2013-06-04 07:35:00,63.4,55.7,29.74,SE,144,8.0,9.0,76,0.00,,,0.00,Wunderground v.1.15,2013-06-04 12:35:00,
2013-06-04 07:45:00,63.5,55.8,29.74,SE,140,8.0,17.0,76,0.00,,,0.00,Wunderground v.1.15,2013-06-04 12:45:00,
2013-06-04 07:55:00,63.7,56.0,29.74,SE,126,7.0,10.0,76,0.00,,,0.00,Wunderground v.1.15,2013-06-04 12:55:00,
2013-06-04 08:00:00,63.7,56.0,29.73,SE,144,8.0,18.0,76,0.00,,,0.00,Wunderground v.1.15,2013-06-04 13:00:00,
2013-06-04 08:10:00,64.0,56.3,29.73,SE,131,8.0,8.0,76,0.00,,,0.00,Wunderground v.1.15,2013-06-04 13:10:00,
2013-06-04 08:20:00,64.3,56.2,29.75,SE,126,6.0,18.0,75,0.00,,,0.00,Wunderground v.1.15,2013-06-04 13:20:00,
2013-06-04 08:25:00,64.5,56.4,29.75,ESE,121,6.0,18.0,75,0.00,,,0.00,Wunderground v.1.15,2013-06-04 13:25:00,
2013-06-04 08:35:00,65.2,57.1,29.77,ESE,102,6.0,18.0,75,0.00,,,0.00,Wunderground v.1.15,2013-06-04 13:35:00,
2013-06-04 08:45:00,65.3,56.8,29.77,SSE,168,6.0,18.0,74,0.00,,,0.00,Wunderground v.1.15,2013-06-04 13:45:00,
2013-06-04 08:55:00,65.6,57.5,29.77,SSE,148,8.0,14.0,75,0.00,,,0.00,Wunderground v.1.15,2013-06-04 13:55:00,
2013-06-04 09:05:00,66.1,57.2,29.78,ESE,121,6.0,14.0,73,0.00,,,0.00,Wunderground v.1.15,2013-06-04 14:05:00,
2013-06-04 09:15:00,66.9,57.6,29.79,SSE,158,6.0,8.0,72,0.00,,,0.00,Wunderground v.1.15,2013-06-04 14:15:00,
2013-06-04 09:20:00,66.9,58.0,29.79,ESE,113,7.0,14.0,73,0.00,,,0.00,Wunderground v.1.15,2013-06-04 14:20:00,
2013-06-04 09:30:00,67.1,57.8,29.79,SSE,148,7.0,14.0,72,0.00,,,0.00,Wunderground v.1.15,2013-06-04 14:30:00,
2013-06-04 09:40:00,67.4,58.1,29.79,SE,136,8.0,14.0,72,0.00,,,0.00,Wunderground v.1.15,2013-06-04 14:40:00,
2013-06-04 09:45:00,67.4,58.1,29.79,SE,143,6.0,14.0,72,0.00,,,0.00,Wunderground v.1.15,2013-06-04 14:45:00,
2013-06-04 09:55:00,67.9,58.5,29.79,SSE,151,7.0,15.0,72,0.00,,,0.00,Wunderground v.1.15,2013-06-04 14:55:00,
2013-06-04 10:05:00,68.3,58.5,29.79,SE,145,7.0,15.0,71,0.00,,,0.00,Wunderground v.1.15,2013-06-04 15:05:00,
2013-06-04 10:10:00,68.3,58.5,29.79,North,0,8.0,15.0,71,0.00,,,0.00,Wunderground v.1.15,2013-06-04 15:10:00,
2013-06-04 10:20:00,68.3,58.5,29.80,SE,124,9.0,14.0,71,0.00,,,0.00,Wunderground v.1.15,2013-06-04 15:20:00,
2013-06-04 10:30:00,68.3,58.5,29.79,ESE,112,8.0,14.0,71,0.00,,,0.00,Wunderground v.1.15,2013-06-04 15:30:00,
2013-06-04 10:40:00,68.3,58.5,29.79,SSE,161,9.0,14.0,71,0.00,,,0.00,Wunderground v.1.15,2013-06-04 15:40:00,
2013-06-04 10:45:00,68.8,59.0,29.78,SSE,150,8.0,14.0,71,0.00,,,0.00,Wunderground v.1.15,2013-06-04 15:45:00,
2013-06-04 10:55:00,68.9,59.1,29.78,SE,127,8.0,16.0,71,0.00,,,0.00,Wunderground v.1.15,2013-06-04 15:55:00,
2013-06-04 11:05:00,68.8,59.0,29.78,SSE,168,7.0,16.0,71,0.00,,,0.00,Wunderground v.1.15,2013-06-04 16:05:00,
2013-06-04 11:10:00,68.4,59.0,29.78,SE,143,9.0,9.0,72,0.00,,,0.00,Wunderground v.1.15,2013-06-04 16:10:00,
2013-06-04 11:20:00,68.6,59.2,29.79,SE,131,8.0,18.0,72,0.00,,,0.00,Wunderground v.1.15,2013-06-04 16:20:00,
2013-06-04 11:30:00,69.3,59.5,29.78,SSE,165,9.0,18.0,71,0.00,,,0.00,Wunderground v.1.15,2013-06-04 16:30:00,
2013-06-04 11:40:00,69.8,60.0,29.78,SSE,167,10.0,10.0,71,0.00,,,0.00,Wunderground v.1.15,2013-06-04 16:40:00,
2013-06-04 11:50:00,70.8,60.5,29.77,SSE,151,10.0,22.0,70,0.00,,,0.00,Wunderground v.1.15,2013-06-04 16:50:00,
2013-06-04 11:55:00,70.3,60.1,29.77,SSE,151,11.0,22.0,70,0.00,,,0.00,Wunderground v.1.15,2013-06-04 16:55:00,
2013-06-04 12:05:00,69.8,60.0,29.77,ESE,103,11.0,22.0,71,0.00,,,0.00,Wunderground v.1.15,2013-06-04 17:05:00,
2013-06-04 12:15:00,69.9,60.5,29.75,SE,133,11.0,22.0,72,0.00,,,0.00,Wunderground v.1.15,2013-06-04 17:15:00,
2013-06-04 12:25:00,70.3,60.8,29.75,SE,131,10.0,26.0,72,0.00,,,0.00,Wunderground v.1.15,2013-06-04 17:25:00,
2013-06-04 12:30:00,70.4,60.9,29.75,SSE,147,11.0,26.0,72,0.00,,,0.00,Wunderground v.1.15,2013-06-04 17:30:00,
2013-06-04 12:40:00,70.9,61.0,29.75,ESE,112,9.0,9.0,71,0.00,,,0.00,Wunderground v.1.15,2013-06-04 17:40:00,
2013-06-04 12:50:00,71.5,61.6,29.74,SE,143,9.0,21.0,71,0.00,,,0.00,Wunderground v.1.15,2013-06-04 17:50:00,
2013-06-04 12:55:00,71.8,61.5,29.74,SE,137,10.0,21.0,70,0.00,,,0.00,Wunderground v.1.15,2013-06-04 17:55:00,
2013-06-04 13:05:00,72.3,61.6,29.76,SSW,192,10.0,21.0,69,0.00,,,0.00,Wunderground v.1.15,2013-06-04 18:05:00,
2013-06-04 13:15:00,73.3,62.1,29.77,ESE,106,8.0,9.0,68,0.00,,,0.00,Wunderground v.1.15,2013-06-04 18:15:00,
2013-06-04 13:25:00,73.7,62.1,29.77,SE,127,8.0,20.0,67,0.00,,,0.00,Wunderground v.1.15,2013-06-04 18:25:00,
2013-06-04 13:35:00,73.3,61.7,29.78,SE,136,6.0,7.0,67,0.00,,,0.00,Wunderground v.1.15,2013-06-04 18:35:00,
2013-06-04 13:40:00,73.3,61.7,29.78,SW,217,7.0,7.0,67,0.00,,,0.00,Wunderground v.1.15,2013-06-04 18:40:00,
2013-06-04 13:50:00,72.8,61.6,29.78,ESE,117,5.0,5.0,68,0.00,,,0.00,Wunderground v.1.15,2013-06-04 18:50:00,
2013-06-04 13:55:00,72.7,61.5,29.78,SE,138,7.0,7.0,68,0.00,,,0.00,Wunderground v.1.15,2013-06-04 18:55:00,
2013-06-04 14:05:00,73.5,62.3,29.78,SE,140,6.0,18.0,68,0.00,,,0.00,Wunderground v.1.15,2013-06-04 19:05:00,
2013-06-04 14:15:00,73.9,62.2,29.77,SSE,160,7.0,18.0,67,0.00,,,0.00,Wunderground v.1.15,2013-06-04 19:15:00,
2013-06-04 14:25:00,74.2,63.0,29.77,ESE,110,7.0,15.0,68,0.00,,,0.00,Wunderground v.1.15,2013-06-04 19:25:00,
2013-06-04 14:30:00,74.7,62.1,29.76,SSE,150,7.0,15.0,65,0.00,,,0.00,Wunderground v.1.15,2013-06-04 19:30:00,
2013-06-04 14:40:00,75.6,62.1,29.76,East,97,8.0,15.0,63,0.00,,,0.00,Wunderground v.1.15,2013-06-04 19:40:00,
2013-06-04 14:50:00,75.6,62.6,29.76,SSE,165,7.0,17.0,64,0.00,,,0.00,Wunderground v.1.15,2013-06-04 19:50:00,
2013-06-04 14:55:00,75.6,62.1,29.76,SE,136,8.0,17.0,63,0.00,,,0.00,Wunderground v.1.15,2013-06-04 19:55:00,
2013-06-04 15:05:00,74.4,61.9,29.75,SE,131,9.0,11.0,65,0.00,,,0.00,Wunderground v.1.15,2013-06-04 20:05:00,
2013-06-04 15:15:00,74.4,61.9,29.76,SE,140,8.0,17.0,65,0.00,,,0.00,Wunderground v.1.15,2013-06-04 20:15:00,
2013-06-04 15:20:00,75.1,62.1,29.76,SE,144,8.0,17.0,64,0.00,,,0.00,Wunderground v.1.15,2013-06-04 20:20:00,
2013-06-04 15:30:00,76.3,62.3,29.75,SE,133,7.0,7.0,62,0.00,,,0.00,Wunderground v.1.15,2013-06-04 20:30:00,
2013-06-04 15:40:00,76.1,61.7,29.75,SSE,158,8.0,8.0,61,0.00,,,0.00,Wunderground v.1.15,2013-06-04 20:40:00,
2013-06-04 15:45:00,76.5,62.0,29.75,ESE,106,7.0,9.0,61,0.00,,,0.00,Wunderground v.1.15,2013-06-04 20:45:00,
2013-06-04 15:55:00,77.2,62.7,29.75,SSW,199,7.0,17.0,61,0.00,,,0.00,Wunderground v.1.15,2013-06-04 20:55:00,
2013-06-04 16:00:00,76.8,61.9,29.75,SSE,150,7.0,17.0,60,0.00,,,0.00,Wunderground v.1.15,2013-06-04 21:00:00,
2013-06-04 16:10:00,77.6,62.6,29.75,South,191,5.0,17.0,60,0.00,,,0.00,Wunderground v.1.15,2013-06-04 21:10:00,
2013-06-04 16:20:00,76.7,61.3,29.75,SSE,154,7.0,7.0,59,0.00,,,0.00,Wunderground v.1.15,2013-06-04 21:20:00,
2013-06-04 16:30:00,76.8,61.4,29.75,SSE,151,6.0,15.0,59,0.00,,,0.00,Wunderground v.1.15,2013-06-04 21:30:00,
2013-06-04 16:40:00,77.4,62.4,29.75,ESE,120,6.0,6.0,60,0.00,,,0.00,Wunderground v.1.15,2013-06-04 21:40:00,
2013-06-04 16:45:00,77.6,62.1,29.75,South,176,6.0,9.0,59,0.00,,,0.00,Wunderground v.1.15,2013-06-04 21:45:00,
2013-06-04 16:55:00,77.7,61.7,29.75,South,181,6.0,13.0,58,0.00,,,0.00,Wunderground v.1.15,2013-06-04 21:55:00,
2013-06-04 17:00:00,77.6,62.1,29.75,SSW,202,6.0,13.0,59,0.00,,,0.00,Wunderground v.1.15,2013-06-04 22:00:00,
2013-06-04 17:10:00,77.7,62.7,29.75,SSE,148,6.0,13.0,60,0.00,,,0.00,Wunderground v.1.15,2013-06-04 22:10:00,
2013-06-04 17:20:00,77.4,61.9,29.75,SE,141,7.0,14.0,59,0.00,,,0.00,Wunderground v.1.15,2013-06-04 22:20:00,
2013-06-04 17:30:00,77.0,62.5,29.75,SSE,152,7.0,7.0,61,0.00,,,0.00,Wunderground v.1.15,2013-06-04 22:30:00,
2013-06-04 17:35:00,77.2,62.7,29.75,SSE,162,6.0,14.0,61,0.00,,,0.00,Wunderground v.1.15,2013-06-04 22:35:00,
2013-06-04 17:45:00,77.4,62.4,29.75,East,97,5.0,14.0,60,0.00,,,0.00,Wunderground v.1.15,2013-06-04 22:45:00,
2013-06-04 17:50:00,77.7,63.2,29.75,SE,138,5.0,14.0,61,0.00,,,0.00,Wunderground v.1.15,2013-06-04 22:50:00,
2013-06-04 18:00:00,76.5,62.5,29.75,South,186,7.0,14.0,62,0.00,,,0.00,Wunderground v.1.15,2013-06-04 23:00:00,
2013-06-04 18:10:00,75.6,62.1,29.75,SE,131,7.0,14.0,63,0.00,,,0.00,Wunderground v.1.15,2013-06-04 23:10:00,
2013-06-04 18:20:00,76.0,62.5,29.76,SE,133,6.0,15.0,63,0.00,,,0.00,Wunderground v.1.15,2013-06-04 23:20:00,
2013-06-04 18:25:00,76.1,62.1,29.76,SE,145,6.0,15.0,62,0.00,,,0.00,Wunderground v.1.15,2013-06-04 23:25:00,
2013-06-04 18:35:00,76.0,62.0,29.76,SSW,195,7.0,15.0,62,0.00,,,0.00,Wunderground v.1.15,2013-06-04 23:35:00,
2013-06-04 18:45:00,75.1,61.6,29.76,SE,128,6.0,8.0,63,0.00,,,0.00,Wunderground v.1.15,2013-06-04 23:45:00,
2013-06-04 18:50:00,74.9,61.5,29.76,SSE,154,7.0,7.0,63,0.00,,,0.00,Wunderground v.1.15,2013-06-04 23:50:00,
2013-06-04 19:00:00,74.7,61.7,29.76,SSE,161,5.0,14.0,64,0.00,,,0.00,Wunderground v.1.15,2013-06-05 00:00:00,
2013-06-04 19:10:00,74.2,61.7,29.76,SSE,151,6.0,14.0,65,0.00,,,0.00,Wunderground v.1.15,2013-06-05 00:10:00,
2013-06-04 19:15:00,73.9,61.4,29.76,SE,143,7.0,14.0,65,0.00,,,0.00,Wunderground v.1.15,2013-06-05 00:15:00,
2013-06-04 19:25:00,73.7,61.6,29.76,SE,134,5.0,7.0,66,0.00,,,0.00,Wunderground v.1.15,2013-06-05 00:25:00,
2013-06-04 19:35:00,73.7,61.6,29.76,SE,133,6.0,14.0,66,0.00,,,0.00,Wunderground v.1.15,2013-06-05 00:35:00,
2013-06-04 19:45:00,73.7,62.1,29.76,SE,126,5.0,14.0,67,0.00,,,0.00,Wunderground v.1.15,2013-06-05 00:45:00,
2013-06-04 19:55:00,73.9,62.2,29.76,SE,134,4.0,13.0,67,0.00,,,0.00,Wunderground v.1.15,2013-06-05 00:55:00,
2013-06-04 20:00:00,73.7,62.1,29.78,SSE,158,4.0,13.0,67,0.00,,,0.00,Wunderground v.1.15,2013-06-05 01:00:00,
2013-06-04 20:10:00,73.3,61.7,29.78,SE,136,5.0,13.0,67,0.00,,,0.00,Wunderground v.1.15,2013-06-05 01:10:00,
2013-06-04 20:20:00,73.2,62.0,29.78,SE,131,4.0,4.0,68,0.00,,,0.00,Wunderground v.1.15,2013-06-05 01:20:00,
2013-06-04 20:30:00,72.8,62.0,29.78,SE,138,5.0,5.0,69,0.00,,,0.00,Wunderground v.1.15,2013-06-05 01:30:00,
2013-06-04 20:40:00,72.7,61.9,29.78,ESE,119,5.0,10.0,69,0.00,,,0.00,Wunderground v.1.15,2013-06-05 01:40:00,
2013-06-04 20:45:00,72.7,61.9,29.78,ESE,103,5.0,10.0,69,0.00,,,0.00,Wunderground v.1.15,2013-06-05 01:45:00,
2013-06-04 20:55:00,72.3,61.6,29.78,SE,136,3.0,10.0,69,0.00,,,0.00,Wunderground v.1.15,2013-06-05 01:55:00,
2013-06-04 21:05:00,72.1,61.8,29.78,ESE,107,2.0,10.0,70,0.00,,,0.00,Wunderground v.1.15,2013-06-05 02:05:00,
2013-06-04 21:15:00,71.8,61.9,29.79,ESE,107,1.0,10.0,71,0.00,,,0.00,Wunderground v.1.15,2013-06-05 02:15:00,
2013-06-04 21:25:00,71.6,61.7,29.79,ESE,103,2.0,8.0,71,0.00,,,0.00,Wunderground v.1.15,2013-06-05 02:25:00,
2013-06-04 21:30:00,71.6,62.1,29.79,East,96,2.0,2.0,72,0.00,,,0.00,Wunderground v.1.15,2013-06-05 02:30:00,
2013-06-04 21:40:00,71.5,62.0,29.79,ESE,104,2.0,2.0,72,0.00,,,0.00,Wunderground v.1.15,2013-06-05 02:40:00,
2013-06-04 21:50:00,71.5,62.0,29.80,ESE,104,1.0,7.0,72,0.00,,,0.00,Wunderground v.1.15,2013-06-05 02:50:00,
2013-06-04 22:00:00,71.1,62.0,29.80,ESE,120,1.0,7.0,73,0.00,,,0.00,Wunderground v.1.15,2013-06-05 03:00:00,
2013-06-04 22:10:00,70.8,62.1,29.80,SE,134,3.0,7.0,74,0.00,,,0.00,Wunderground v.1.15,2013-06-05 03:10:00,
2013-06-04 22:15:00,70.6,62.3,29.80,ESE,103,3.0,7.0,75,0.00,,,0.00,Wunderground v.1.15,2013-06-05 03:15:00,
2013-06-04 22:25:00,70.1,61.8,29.80,SE,143,4.0,8.0,75,0.00,,,0.00,Wunderground v.1.15,2013-06-05 03:25:00,
2013-06-04 22:35:00,69.8,61.9,29.81,SE,130,4.0,8.0,76,0.00,,,0.00,Wunderground v.1.15,2013-06-05 03:35:00,
2013-06-04 22:45:00,69.6,62.1,29.81,ESE,119,3.0,8.0,77,0.00,,,0.00,Wunderground v.1.15,2013-06-05 03:45:00,
2013-06-04 22:55:00,69.4,62.2,29.81,SE,134,2.0,9.0,78,0.00,,,0.00,Wunderground v.1.15,2013-06-05 03:55:00,
2013-06-04 23:00:00,69.4,61.9,29.82,SE,134,1.0,1.0,77,0.00,,,0.00,Wunderground v.1.15,2013-06-05 04:00:00,
2013-06-04 23:05:00,69.4,62.2,29.82,SE,134,1.0,2.0,78,0.00,,,0.00,Wunderground v.1.15,2013-06-05 04:05:00,
2013-06-04 23:10:00,69.3,62.1,29.82,South,185,2.0,9.0,78,0.00,,,0.00,Wunderground v.1.15,2013-06-05 04:10:00,
2013-06-04 23:15:00,69.3,62.1,29.83,South,185,3.0,9.0,78,0.00,,,0.00,Wunderground v.1.15,2013-06-05 04:15:00,
2013-06-04 23:20:00,69.1,61.9,29.83,South,182,4.0,8.0,78,0.00,,,0.00,Wunderground v.1.15,2013-06-05 04:20:00,
2013-06-04 23:25:00,69.1,61.6,29.83,South,186,5.0,8.0,77,0.00,,,0.00,Wunderground v.1.15,2013-06-05 04:25:00,
2013-06-04 23:30:00,69.1,61.2,29.83,South,181,6.0,6.0,76,0.00,,,0.00,Wunderground v.1.15,2013-06-05 04:30:00,
2013-06-04 23:35:00,69.1,61.2,29.83,SE,138,3.0,8.0,76,0.00,,,0.00,Wunderground v.1.15,2013-06-05 04:35:00,
2013-06-04 23:40:00,69.1,60.8,29.83,SSE,158,3.0,8.0,75,0.00,,,0.00,Wunderground v.1.15,2013-06-05 04:40:00,
2013-06-04 23:45:00,68.9,60.6,29.82,SSE,147,4.0,8.0,75,0.00,,,0.00,Wunderground v.1.15,2013-06-05 04:45:00,
2013-06-04 23:55:00,68.8,60.6,29.82,SE,141,5.0,6.0,75,0.00,,,0.00,Wunderground v.1.15,2013-06-05 04:55:00,